014  
ASUS44 KLCH 302010  
RWRLCH  
REGIONAL WEATHER ROUNDUP  
NATIONAL WEATHER SERVICE LAKE CHARLES LA  
300 PM CDT THU MAR 30 2017  
 
NOTE: "FAIR" INDICATES FEW OR NO CLOUDS BELOW 12,000 FEET WITH NO  
SIGNIFICANT WEATHER AND/OR S TO VISIBILITY
.  
 
ACROSS SOUTHEAST TEXAS  
 
CITY SKY/WX TMP DP RH WIND PRES REMARKS
 
BEAUMONT SUNNY 76 50 40 W13 29.81F  
BEAUMONT CITY FAIR N/A N/A N/A W8 29.83F  
ORANGE CLEAR 72 52 49 NW7 29.83F  
JASPER CLOUDY 69 52 53 SW6 29.84F  

 
 
ACROSS CENTRAL LOUISIANA  
 
CITY SKY/WX TMP DP RH WIND PRES REMARKS
 
LEESVILLE MOSUNNY 71 50 47 NW6 29.78F  
FULLERTON FAIR 75 48 38 VRB3 29.75F  
ALEXANDRIA INT MOSUNNY 74 50 42 W7 29.76F  
ESLER FIELD PTSUNNY 76 51 41 SW12 29.77F  
DERIDDER FAIR 72 46 40 W7 29.81F  
OAKDALE CLOUDY 75 57 53 NW6 29.78F  
OPELOUSAS CLOUDY 73 65 74 MISG 29.77F  

 
 
ACROSS SOUTHWEST AND SOUTH CENTRAL LOUISIANA  
 
CITY SKY/WX TMP DP RH WIND PRES REMARKS
 
SULPHUR CLEAR 74 54 49 NW10 29.81F  
LAKE CHARLES SUNNY 74 52 46 W8 29.79F  
CHENNAULT INT MOSUNNY 73 52 46 NW6 29.80F  
CAMERON PHI CLEAR 73 54 49 NW8 29.79F  
DEQUINCY FAIR 73 49 42 W9 29.81F  
JENNINGS MOCLDY 73 61 66 W10 29.79S  
LAFAYETTE MOSUNNY 79 66 64 S10 29.76F  
NEW IBERIA CLOUDY 77 65 66 S13 29.78F  
ABBEVILLE CLOUDY 75 70 83 S12 29.77F  
PATTERSON CLOUDY 68 62 81 SE9 29.82F  
SALT POINT N/A 68 61 78 SE8 29.79F  

 
 
SELECTED SITES ACROSS THE REGION  
 
CITY SKY/WX TMP DP RH WIND PRES REMARKS
 
HOUSTON BUSH MOSUNNY 74 48 39 N12 29.84F  
HOUSTON HOBBY SUNNY 74 44 34 NW14 29.84F  
GALVESTON SUNNY 72 51 47 NE9 29.86F  
COLLEGE STAT SUNNY 73 47 39 W13 29.84F  
CONROE SUNNY 73 46 38 VRB7G16 29.84F  
HUNTSVILLE SUNNY 74 44 34 W9 29.83F  
LUFKIN SUNNY 72 47 40 VRB6 29.81F  
SHREVEPORT MOSUNNY 72 46 39 W13 29.76F  
MONROE SUNNY 73 50 44 SW13 29.74F  
NATCHEZ MS NOT AVBL  
BATON ROUGE CLOUDY 72 61 68 S9 29.79F  
N.O. INTL ARPT CLOUDY 66 61 84 SE13 29.78F  
SLIDELL PTSUNNY 65 61 87 SE7 29.78F  

 
 
MARINE REPORTS  
 
STATION/POSITION TIME SKY/WX TEMP WIND PRES VSBY
 
AIR SEA DIR/SP/G  
(UTC) (F) (DEG/KT/KT) (MB) (MI)  
BUOY 30 S HIGH I 1950 66 72 290/ 10/ 12 1010.8F  
WVE H/P(F/S)= 3/ 9  
 
SEA RIM ST PARK 2000 71 300/ 10/ 13 1010.3F  
PORT ARTHUR 1948 74 310/ 7/ 15 1009.9F  
SABINE PASS N 1948 70 76 330/ 9/ 12 1011.2F  
TEXAS POINT NOT AVBL  
CALCASIEU PASS 1948 71 75 320/ 11/ 15 N/A  
LK CHARLES BEACH 1948 71 72 1009.5F  
MARSH ISLAND NOT AVBL  
FRESH WATER LOCK 1948 71 75 180/ 16/ 19 1008.5F  
AMERADA PASS 1948 68 63 110/ 4/ 6 1009.5R  

 
 
 
CLICK HERE TO GO TO PREVIOUS BULLETINS.

The Nexlab LA Page
The Nexlab TX Page Main Text Page